Regional Weather Roundup
Issued by NWS

Home | Current Version | Previous Version | Graphics & Text | Print | Product List | Glossary On
Versions: 1 2 3 4 5 6 7 8 9 10 11 12 13 14 15 16 17 18 19 20 21 22 23 24 25 26 27 28 29 30 31 32 33 34 35 36 37 38 39 40 41 42 43 44 45 46 47 48 49 50
000
ASUS43 KBIS 190110
RWRND

NORTH DAKOTA REGIONAL WEATHER ROUNDUP
NATIONAL WEATHER SERVICE BISMARCK ND
700 PM CST THU DEC 18 2014

NOTE: "FAIR" INDICATES FEW OR NO CLOUDS BELOW 12,000 FEET WITH NO
SIGNIFICANT WEATHER AND/OR OBSTRUCTIONS TO VISIBILITY.


NDZ001>003-009>011-017-190200-
NORTHWEST NORTH DAKOTA

CITY           SKY/WX    TMP DP  RH WIND       PRES   REMARKS
WILLISTON      CLOUDY    28  26  92 S5        29.95S
MINOT          CLOUDY    23  19  85 SE6       29.99R WCI  16
MINOT AFB      CLOUDY    22  22  99 SE6       29.99R WCI  15
$$

NDZ018>021-031>035-040>046-190200-
SOUTHWEST NORTH DAKOTA

CITY           SKY/WX    TMP DP  RH WIND       PRES   REMARKS
BISMARCK       CLOUDY    26  24  92 S8        30.03S WCI  18
DICKINSON      FOG       20  17  88 S6        29.93R VSB 1/4 WCI  12
GARRISON         N/A     26  22  84 NW3       29.98S
HETTINGER ARPT CLEAR     26  24  92 CALM      29.97S
$$

NDZ004>008-012>016-024-026-027-054-190200-
NORTHEAST NORTH DAKOTA

CITY           SKY/WX    TMP DP  RH WIND       PRES   REMARKS
GRAND FORKS    CLOUDY    19  15  84 S9        30.16F WCI   8
GRND FRKS AFB  CLOUDY    19  18  96 S10       30.15F WCI   7
DEVILS LAKE    CLOUDY    21  12  68 SE13      30.04F WCI   9
$$

NDZ022-023-025-028>030-036>039-047>053-190200-
SOUTHEAST NORTH DAKOTA

CITY           SKY/WX    TMP DP  RH WIND       PRES   REMARKS
FARGO          CLOUDY    21  15  78 S13       30.18S WCI   9
JAMESTOWN      CLOUDY    22  20  92 S12       30.07S WCI  10
$$




USA.gov is the U.S. government's official web portal to all federal, state and local government web resources and services.